Regional Weather Roundup
Issued by NWS

Home | Current Version | Previous Version | Graphics & Text | Print | Product List | Glossary Off
Versions: 1 2 3 4 5 6 7 8 9 10 11 12 13 14 15 16 17 18 19 20 21 22 23 24 25 26 27 28 29 30 31 32 33 34 35 36 37 38 39 40 41 42 43 44 45 46 47 48 49 50

000
ASUS43 KTOP 181159
RWRKS

WEATHER ROUNDUP FOR KANSAS
NATIONAL WEATHER SERVICE GOODLAND KS
700 AM CDT SAT APR 18 2015

NOTE:  "FAIR" INDICATES FEW OR NO CLOUDS BELOW 12,000 FEET WITH NO
SIGNIFICANT WEATHER AND/OR OBSTRUCTIONS TO VISIBILITY.

KSZ001>006-013>018-027>032-041>047-181300-
NORTHWEST KANSAS

CITY           SKY/WX    TMP DP  RH WIND       PRES   REMARKS
GOODLAND       FOG       39  39 100 NE3       29.91S VSB 1
6HR MIN TEMP:  37; 6HR MAX TEMP:  47;

HAYS           CLOUDY    46  37  71 E3        29.91S VSB 1/2
HILL CITY      PTCLDY    44  43  96 NW3       29.92R
6HR MIN TEMP:  43; 6HR MAX TEMP:  56; 6HR PCP:  0.16;

RUSSELL        MOCLDY    53  51  93 E6        29.90R
6HR MIN TEMP:  52; 6HR MAX TEMP:  60; 6HR PCP: TRACE;

$$

KSZ061>065-074>080-084>089-181300-
SOUTHWEST KANSAS

CITY           SKY/WX    TMP DP  RH WIND       PRES   REMARKS
DODGE CITY     FOG       54  52  93 S12       29.90F VSB 1/2
6HR MIN TEMP:  54; 6HR MAX TEMP:  58;

ELKHART          N/A    N/A N/A N/A MISG        N/A
GARDEN CITY    FOG       52  52 100 S9        29.88S VSB 3/4
6HR MIN TEMP:  43; 6HR MAX TEMP:  52;

GREAT BEND     CLOUDY    55  50  82 CALM      29.91F
LIBERAL        CLOUDY    48  45  87 SW13      29.90S
$$

KSZ066>073-081>083-090>101-181300-
SOUTHEAST KANSAS

CITY           SKY/WX    TMP DP  RH WIND       PRES   REMARKS
CHANUTE        TSTM      61  60  97 SW17      29.95R FOG
6HR MIN TEMP:  61; 6HR MAX TEMP:  64; 6HR PCP:  0.29;

COFFEYVILLE    CLOUDY    63  57  81 N9        29.90S
6HR MIN TEMP:  61; 6HR MAX TEMP:  64; 6HR PCP:  0.20;

HUTCHINSON     CLOUDY    61  57  87 SE7       29.90S
6HR MIN TEMP:  59; 6HR MAX TEMP:  63; 6HR PCP:  0.03;

MEDICINE LODGE   N/A     57  56  96 CALM      29.91R
NEWTON         CLOUDY    57  54  88 SE8       29.93S
PARSONS        LGT RAIN  62  59  90 W9        29.92F
6HR MIN TEMP:  60; 6HR MAX TEMP:  65; 6HR PCP:  0.84;

WICHITA INTL   CLOUDY    61  58  90 S6        29.92R
6HR MIN TEMP:  61; 6HR MAX TEMP:  65; 6HR PCP: TRACE;

WICHITA JABRA  CLOUDY    60  58  92 MISG      29.92R
6HR MIN TEMP:  58; 6HR MAX TEMP:  63; 6HR PCP:  0.20;

WINFIELD       CLOUDY    61  60  97 MISG      29.92F
6HR MIN TEMP:  61; 6HR MAX TEMP:  64;

$$

KSZ007>012-019>026-033>040-048>060-102>105-181300-
NORTHEAST KANSAS

CITY           SKY/WX    TMP DP  RH WIND       PRES   REMARKS
CONCORDIA      CLOUDY    57  57 100 W5        29.92R FOG
6HR MIN TEMP:  57; 6HR MAX TEMP:  60; 6HR PCP:  0.02;

EMPORIA        LGT RAIN  58  56  93 N3        29.91R
6HR MIN TEMP:  57; 6HR MAX TEMP:  62; 6HR PCP:  0.05;

LAWRENCE       CLOUDY    55  53  93 NW3       29.90S
6HR MIN TEMP:  55; 6HR MAX TEMP:  60;

MANHATTAN      LGT RAIN  62  59  90 W5        29.90S FOG
6HR MIN TEMP:  59; 6HR MAX TEMP:  63; 6HR PCP:  0.01;

OLATHE IND     CLOUDY    61  58  90 SE6       29.91S
6HR MIN TEMP:  60; 6HR MAX TEMP:  64;

OLATHE EXE     CLOUDY    61  58  90 SE5       29.90S
6HR MIN TEMP:  61; 6HR MAX TEMP:  65;

SALINA         CLOUDY    60  58  92 W7        29.91R
6HR MIN TEMP:  59; 6HR MAX TEMP:  63; 6HR PCP:  0.09;

TOPEKA BILLARD CLOUDY    58  56  93 CALM      29.91S
6HR MIN TEMP:  57; 6HR MAX TEMP:  60;

TOPEKA FORBES  CLOUDY    59  56  89 CALM      29.90S
6HR MIN TEMP:  59; 6HR MAX TEMP:  61;

$$



USA.gov is the U.S. government's official web portal to all federal, state and local government web resources and services.